Bellaire, MI

3:26 AM EST on January 19, 2018 (GMT -0500)
Antrim County

Weather History for KACB - March, 2014

Change the Weather History Date:

Sunday, March 23, 2014

  Actual Average (KCVX) Record (KCVX)
Temperature  
Mean Temperature 10 °F -  
Max Temperature 21 °F 48 °F 55 °F (2003)
Min Temperature 0 °F 32 °F 5 °F (2014)
Degree Days  
Heating Degree Days 54    
Moisture  
Dew Point 2 °F    
Average Humidity 68    
Maximum Humidity 87    
Minimum Humidity 42    
Precipitation  
Precipitation 0.00 in - - ()
Sea Level Pressure  
Sea Level Pressure 30.35 in    
Wind  
Wind Speed 2 mph (WNW)    
Max Wind Speed 12 mph    
Max Gust Speed 17 mph    
Visibility 9 miles    
Events Snow    
Averages and records for this station are not official NWS values.
T = Trace of Precipitation, MM = Missing Value Source: NWS Daily Summary

Daily Weather History Graph

Daily Weather History Graph

Search for Another Location

Airport or City:

Trip Planner

Search our weather history database for the weather conditions in past years. The results will help you decide how hot, cold, wet, or windy it might be!

Date:

Astronomy

Mar. 23, 2014 Rise Set
Actual Time 7:38 AM EDT 7:57 PM EDT
Civil Twilight 7:08 AM EDT 8:26 PM EDT
Nautical Twilight 6:34 AM EDT 9:01 PM EDT
Astronomical Twilight 5:58 AM EDT 9:36 PM EDT
Moon 2:26 AM EDT (3/23) 12:06 PM EDT (3/23)
Length of Visible Light 13h 17m
Length of Day
12h 18m
Waning Gibbous, 55% of the Moon is Illuminated
Mar 23
Waning Gibbous
Mar 23
Last Quarter
Mar 30
New
Apr 7
First Quarter
Apr 15
Full

Hourly Weather History & Observations

Time (EDT) Temp. Windchill Dew Point Humidity Pressure Visibility Wind Dir Wind Speed Gust Speed Precip Events Conditions
12:14 AM 10.4 °F 2.2 °F 3.0 °F 72% 30.33 in 10.0 mi NNE 4.6 mph - N/A   Clear
12:34 AM 9.9 °F - 3.0 °F 74% 30.33 in 10.0 mi Calm Calm - N/A   Clear
12:55 AM 9.5 °F - 3.0 °F 75% 30.33 in 10.0 mi Calm Calm - N/A   Clear
1:14 AM 8.8 °F - 3.2 °F 78% 30.34 in 10.0 mi Calm Calm - N/A   Clear
1:35 AM 7.0 °F - 2.1 °F 80% 30.34 in 10.0 mi Calm Calm - N/A   Clear
1:55 AM 6.3 °F - 2.3 °F 84% 30.34 in 10.0 mi Calm Calm - N/A   Scattered Clouds
2:14 AM 6.1 °F - 2.3 °F 84% 30.34 in 10.0 mi Calm Calm - N/A   Mostly Cloudy
2:35 AM 7.7 °F - 3.9 °F 85% 30.34 in 10.0 mi Calm Calm - N/A   Mostly Cloudy
2:55 AM 8.4 °F 1.8 °F 4.5 °F 84% 30.34 in 10.0 mi South 3.5 mph - N/A   Overcast
3:14 AM 8.4 °F - 4.1 °F 83% 30.34 in 10.0 mi Calm Calm - N/A   Overcast
3:35 AM 6.4 °F - 2.7 °F 84% 30.34 in 10.0 mi Calm Calm - N/A   Scattered Clouds
3:55 AM 4.5 °F - 1.2 °F 86% 30.34 in 10.0 mi Calm Calm - N/A   Clear
4:14 AM 4.1 °F - 1.0 °F 87% 30.34 in 10.0 mi Calm Calm - N/A   Clear
4:35 AM 3.2 °F - 0.1 °F 87% 30.34 in 10.0 mi Calm Calm - N/A   Clear
4:55 AM 2.1 °F - -1.1 °F 86% 30.34 in 10.0 mi Calm Calm - N/A   Clear
5:14 AM 2.3 °F - -0.9 °F 86% 30.34 in 10.0 mi Calm Calm - N/A   Clear
5:35 AM 0.9 °F - -2.6 °F 86% 30.34 in 10.0 mi Calm Calm - N/A   Scattered Clouds
5:55 AM 1.9 °F - -1.5 °F 86% 30.35 in 10.0 mi Calm Calm - N/A   Scattered Clouds
6:14 AM 0.7 °F - -2.9 °F 85% 30.35 in 10.0 mi Calm Calm - N/A Snow Light Snow
6:35 AM 0.9 °F - -2.7 °F 85% 30.35 in 10.0 mi Calm Calm - N/A   Scattered Clouds
6:55 AM -0.0 °F - -3.8 °F 84% 30.35 in 10.0 mi Calm Calm - N/A   Clear
7:14 AM 0.3 °F - -3.6 °F 83% 30.36 in 10.0 mi Calm Calm - N/A   Mostly Cloudy
7:35 AM 0.9 °F - -3.1 °F 83% 30.36 in 4.0 mi Calm Calm - N/A Snow Light Snow
7:54 AM 0.5 °F - -3.5 °F 83% 30.36 in 5.0 mi Calm Calm - N/A Snow Light Snow
8:14 AM 1.6 °F - -2.2 °F 84% 30.37 in 2.0 mi Calm Calm - N/A Snow Light Snow
8:35 AM 2.7 °F - -1.3 °F 84% 30.37 in 5.0 mi Calm Calm - N/A Snow Light Snow
8:54 AM 3.2 °F - -0.4 °F 85% 30.37 in 1.5 mi Calm Calm - N/A Snow Light Snow
9:14 AM 6.4 °F - 3.0 °F 86% 30.37 in 4.0 mi Calm Calm - N/A Snow Light Snow
9:35 AM 10.9 °F 4.7 °F 7.5 °F 86% 30.37 in 5.0 mi SSW 3.5 mph - N/A Snow Light Snow
9:54 AM 11.7 °F - 7.7 °F 84% 30.37 in 7.0 mi Calm Calm - N/A Snow Light Snow
10:15 AM 12.7 °F - 8.1 °F 82% 30.38 in 7.0 mi Calm Calm - N/A Snow Light Snow
10:35 AM 13.6 °F - 8.2 °F 79% 30.37 in 10.0 mi Calm Calm - N/A   Scattered Clouds
10:54 AM 16.3 °F - 7.9 °F 69% 30.38 in 10.0 mi Calm Calm - N/A   Mostly Cloudy
11:15 AM 16.7 °F - 6.8 °F 65% 30.38 in 10.0 mi Calm Calm - N/A   Overcast
11:35 AM 16.9 °F 11.5 °F 4.6 °F 59% 30.38 in 10.0 mi NNW 3.5 mph - N/A   Mostly Cloudy
11:54 AM 19.2 °F 12.5 °F 3.0 °F 49% 30.38 in 10.0 mi West 4.6 mph - N/A   Mostly Cloudy
12:15 PM 19.6 °F 9.7 °F 2.8 °F 48% 30.38 in 10.0 mi West 8.1 mph - N/A   Scattered Clouds
12:35 PM 20.3 °F 9.8 °F 3.4 °F 48% 30.37 in 10.0 mi NNW 9.2 mph - N/A   Mostly Cloudy
12:54 PM 19.6 °F 9.7 °F 3.2 °F 49% 30.37 in 10.0 mi WNW 8.1 mph - N/A   Scattered Clouds
1:15 PM 19.6 °F 9.7 °F 1.9 °F 46% 30.37 in 10.0 mi WNW 8.1 mph 16.1 mph N/A   Scattered Clouds
1:35 PM 19.8 °F 9.9 °F 2.1 °F 46% 30.36 in 10.0 mi WNW 8.1 mph - N/A   Scattered Clouds
1:54 PM 20.5 °F 8.6 °F 3.0 °F 47% 30.36 in 10.0 mi NW 11.5 mph 17.3 mph N/A   Mostly Cloudy
2:15 PM 19.8 °F 10.8 °F 1.6 °F 45% 30.36 in 10.0 mi WNW 6.9 mph - N/A   Scattered Clouds
2:35 PM 20.1 °F 12.3 °F 2.3 °F 46% 30.35 in 10.0 mi WNW 5.8 mph 16.1 mph N/A   Scattered Clouds
2:55 PM 21.2 °F 10.9 °F 2.3 °F 44% 30.35 in 10.0 mi WNW 9.2 mph 17.3 mph N/A   Mostly Cloudy
3:15 PM 20.5 °F 12.8 °F 2.7 °F 46% 30.34 in 10.0 mi NW 5.8 mph - N/A   Scattered Clouds
3:35 PM 20.8 °F 11.2 °F 1.9 °F 44% 30.34 in 10.0 mi WNW 8.1 mph 17.3 mph N/A   Mostly Cloudy
3:55 PM 19.9 °F 9.3 °F 1.9 °F 46% 30.34 in 10.0 mi West 9.2 mph - N/A   Overcast
4:15 PM 19.6 °F 11.7 °F 2.7 °F 48% 30.34 in 10.0 mi West 5.8 mph - N/A   Overcast
4:35 PM 19.6 °F 11.7 °F 2.5 °F 48% 30.33 in 10.0 mi NW 5.8 mph 17.3 mph N/A   Overcast
4:55 PM 19.4 °F 10.4 °F 3.2 °F 49% 30.33 in 10.0 mi NNW 6.9 mph - N/A   Mostly Cloudy
5:15 PM 19.9 °F 11.1 °F 2.5 °F 47% 30.33 in 10.0 mi West 6.9 mph - N/A   Scattered Clouds
5:34 PM 20.1 °F 11.3 °F 2.1 °F 46% 30.33 in 10.0 mi WNW 6.9 mph - N/A   Clear
5:55 PM 20.1 °F 10.3 °F 0.1 °F 42% 30.33 in 10.0 mi WNW 8.1 mph 17.3 mph N/A   Clear
6:15 PM 19.9 °F 12.1 °F 1.0 °F 44% 30.33 in 10.0 mi West 5.8 mph - N/A   Clear
6:34 PM 19.4 °F 12.8 °F 1.0 °F 45% 30.33 in 10.0 mi NW 4.6 mph - N/A   Clear
6:55 PM 19.0 °F 9.0 °F 1.2 °F 46% 30.33 in 10.0 mi NW 8.1 mph - N/A   Clear
7:15 PM 18.5 °F 10.4 °F 1.8 °F 48% 30.33 in 10.0 mi West 5.8 mph - N/A   Clear
7:35 PM 17.6 °F 10.7 °F 1.6 °F 50% 30.33 in 10.0 mi West 4.6 mph - N/A   Clear
7:55 PM 17.2 °F - 1.8 °F 51% 30.33 in 10.0 mi Calm Calm - N/A   Clear
8:15 PM 16.7 °F - 1.8 °F 52% 30.33 in 10.0 mi Calm Calm - N/A   Clear
8:35 PM 14.0 °F - 2.3 °F 60% 30.33 in 10.0 mi Calm Calm - N/A   Clear
8:55 PM 11.5 °F - 3.0 °F 69% 30.34 in 10.0 mi Calm Calm - N/A   Clear
9:15 PM 10.9 °F - 2.5 °F 69% 30.34 in 10.0 mi Calm Calm - N/A   Clear
9:35 PM 9.3 °F - 2.5 °F 74% 30.34 in 10.0 mi Calm Calm - N/A   Clear
9:55 PM 8.8 °F - 2.8 °F 77% 30.34 in 10.0 mi Calm Calm - N/A   Clear
10:15 PM 8.2 °F - 3.4 °F 81% 30.34 in 10.0 mi Calm Calm - N/A   Clear
10:35 PM 7.0 °F - 2.3 °F 81% 30.33 in 10.0 mi Calm Calm - N/A   Clear
10:55 PM 6.8 °F - 2.8 °F 84% 30.33 in 10.0 mi Calm Calm - N/A   Clear
11:15 PM 7.5 °F - 3.2 °F 82% 30.33 in 10.0 mi Calm Calm - N/A   Clear
11:35 PM 6.8 °F -0.1 °F 2.3 °F 82% 30.33 in 10.0 mi SE 3.5 mph - N/A   Clear
11:55 PM 5.9 °F - 1.2 °F 81% 30.33 in 10.0 mi Calm Calm - N/A   Clear